Regional Weather Roundup
Issued by NWS Northern Indiana

Home | Current Version | Previous Version | Graphics & Text | Print | Product List | Glossary On
Versions: 1 2 3 4 5 6 7 8 9 10 11 12 13 14 15 16 17 18 19 20 21 22 23 24 25 26 27 28 29 30 31 32 33 34 35 36 37 38 39 40 41 42 43 44 45 46 47 48 49 50
000
ASUS43 KIWX 260410
RWRIWX

KIWX WEATHER ROUNDUP
NATIONAL WEATHER SERVICE NORTHERN INDIANA
1200 AM EDT SUN MAR 26 2017

NOTE: "FAIR" INDICATES FEW OR NO CLOUDS BELOW 12,000 FEET WITH NO
SIGNIFICANT WEATHER AND/OR OBSTRUCTIONS TO VISIBILITY.

* THESE STATIONS ARE NOT UNDER NWS QUALITY CONTROL. THEY ALSO MAY NOT
  REPORT WEATHER SUCH AS PRECIPITATION OR FOG.

INZ001>027-260500-
NORTHERN INDIANA

CITY           SKY/WX    TMP DP  RH WIND       PRES   REMARKS
GARY*          DRIZZLE   54  51  90 SE8G16    29.97S
VALPARAISO     CLOUDY    50  49  96 E13       29.99F FOG
MICHIGAN CITY* CLOUDY    50  46  87 E8        30.00F
LAPORTE*       CLOUDY    48  46  93 E12       30.00F
KNOX*          CLOUDY    50  36  57 E8        29.99F
SOUTH BEND     LGT RAIN  46  32  58 E15       30.02F
GOSHEN         LGT RAIN  46  41  82 E13       30.04F
MONTICELLO*    LGT RAIN  54  53  95 E6        29.96F
LOGANSPORT*    LGT RAIN  50  48  93 E10       29.99F
ROCHESTER*     LGT RAIN  52  48  87 E10       30.02S
WARSAW*        CLOUDY    45  43  93 E12       30.04F
ANGOLA*        CLOUDY    39  39 100 SE6       30.07F
FORT WAYNE     CLOUDY    43  39  86 NE13      30.06F
HUNTINGTON*    CLOUDY    44  43  96 E8        30.05S
PERU/GRISSOM   CLOUDY    50  50 100 E12       29.98F
MARION*        CLOUDY    53  50  90 NE10      30.01F FOG

$$
INZ028>050-260500-
CENTRAL INDIANA

CITY           SKY/WX    TMP DP  RH WIND       PRES   REMARKS
LAFAYETTE      LGT RAIN  61  56  83 SE12      29.94F
KOKOMO*        LGT RAIN  52  50  93 NE12      30.00F
MUNCIE*        LGT RAIN  59  55  87 NE8       30.01F
INDIANAPOLIS   CLOUDY    58  57  97 E7        29.95F

$$
MIZ043>046-050>051-056>058-064>065-071>073-077>080-260500-
SOUTHWEST LOWER MICHIGAN

CITY           SKY/WX    TMP DP  RH WIND       PRES   REMARKS
BATTLE CREEK   LGT RAIN  44  41  89 E7        30.10R
BENTON HARBOR  LGT RAIN  48  45  89 E14       30.02S
COLDWATER*     CLOUDY    44  40  88 E8        30.07S
HILLSDALE*     CLOUDY    39  36  87 E14G21    30.07F
HOLLAND        RAIN      44  42  93 E20       30.05F FOG
GRAND RAPIDS   RAIN      41  39  93 E17       30.08F FOG
KALAMAZOO      LGT RAIN  45  42  89 E7        30.07S FOG
STURGIS*       CLOUDY    44  42  93 SE7       30.07R
THREE RIVERS*  LGT RAIN  45  43  93 SE10      30.07F

$$
OHZ001>008-015>018-024>025-260500-
NORTHWEST OHIO

CITY           SKY/WX    TMP DP  RH WIND       PRES   REMARKS
WAUSEON*       CLOUDY    39  36  87 E17       30.09F
DEFIANCE       CLOUDY    39  36  89 NE10      30.08F
FINDLAY        CLOUDY    43  36  76 NE9       30.06F
TOLEDO EXPRESS CLOUDY    37  35  92 E15       30.11F
TOLEDO METCALF CLOUDY    39  37  92 NE13      30.13F
LIMA           CLOUDY    48  45  89 E7        30.04F

$$
AND FOR LAKE MICHIGAN COASTAL AND OPEN LAKE BUOY OBSERVATIONS

STATION/POSITION TEMP    WIND        PRES    VSBY  WAVE
                 AIR SEA DIR/SP/G                  HT/PER
                 (F)     (DEG/KT/KT) (MB)    (MI)  (FT/S)
CALUMET HARBOR    45      50/  3/  5 1014.2F
MICHIGAN CITY     50     110/ 13/ 16   N/A
BURNS HARBOR      53     120/ 17/ 26 1015.6S

$$
&&



USA.gov is the U.S. government's official web portal to all federal, state and local government web resources and services.